KWANGJEOK current weather conditions

sailwx.info

Wind from 290 at 1 knots

Air temperature 4.0° C
Visibility: greater than 4.9 NM
Dewpoint -7.0° C
Present weather: Haze.

Last reported at 2015-Feb-28 10:40 UTC.
Time now 2015-Feb-28 12:30 UTC

Location: N 37°48' E 126°58'.
View on Google Maps.

See reports from other nearby stations

  
Tides and Currents Weather Stations Pressure Air Temp Water Temp Dewpoint Dewpoint Depression Visibility Wind Speed Wind Dir Waves Ship Positions
date/time (UTC)wind fromknots sea level pressurealtimeterstation pressurevisibilityair tempwater tempwave heightnotes
2015-Feb-28 11:50 060 1 5.4 3.0
2015-Feb-28 11:40 060 1 5.4 3.0
2015-Feb-28 11:30 360 1 5.4 4.0
2015-Feb-28 11:20 5.4 4.0
2015-Feb-28 11:10 5.4 4.0
2015-Feb-28 11:00 280 1 4.9 4.0 Haze.
2015-Feb-28 10:50 4.3 4.0 Haze.
2015-Feb-28 10:40 290 1 4.9 4.0 Haze.
2015-Feb-28 10:30 4.3 4.0 Haze.
2015-Feb-28 10:20 5.4 5.0
2015-Feb-28 10:10 5.4 5.0
2015-Feb-28 10:00 190 2 5.4 5.0
2015-Feb-28 09:50 260 1 5.4 5.0
2015-Feb-28 09:40 250 1 5.4 5.0
2015-Feb-28 09:30 5.4 5.0
2015-Feb-28 09:20 5.4 6.0
2015-Feb-28 09:10 5.4 6.0
2015-Feb-28 09:00 260 1 5.4 6.0
2015-Feb-28 08:50 280 2 5.4 6.0
2015-Feb-28 08:40 310 1 5.4 6.0
2015-Feb-28 08:30 300 1 5.4 6.0
2015-Feb-28 08:20 080 1 5.4 6.0
2015-Feb-28 08:10 010 2 5.4 6.0
2015-Feb-28 08:00 320 1 5.4 6.0
2015-Feb-28 07:50 360 2 5.4 6.0
2015-Feb-28 07:40 340 2 5.4 6.0
2015-Feb-28 07:30 350 4 5.4 6.0
2015-Feb-28 07:20 340 3 5.4 6.0
2015-Feb-28 07:10 340 5 5.4 6.0
2015-Feb-28 07:00 330 5 5.4 6.0
2015-Feb-28 06:50 340 7 gusting 12 5.4 6.0
2015-Feb-28 06:40 030 5 5.4 5.0
2015-Feb-28 06:30 010 7 5.4 6.0
2015-Feb-28 06:20 350 5 5.4 5.0
2015-Feb-28 06:10 350 5 5.4 5.0
2015-Feb-28 06:00 330 5 5.4 5.0
2015-Feb-28 05:50 320 7 gusting 11 5.4 5.0
2015-Feb-28 05:40 320 8 5.4 5.0
2015-Feb-28 05:30 320 6 gusting 13 5.4 5.0
2015-Feb-28 05:20 320 7 gusting 12 5.4 5.0
2015-Feb-28 05:10 330 7 5.4 5.0
2015-Feb-28 05:00 340 10 gusting 15 5.4 5.0
2015-Feb-28 04:50 340 8 gusting 14 5.4 5.0
2015-Feb-28 04:40 330 7 gusting 14 5.4 5.0
2015-Feb-28 04:30 340 6 gusting 12 5.4 5.0
2015-Feb-28 04:20 010 5 gusting 11 5.4 5.0
2015-Feb-28 04:10 340 5 5.4 5.0
2015-Feb-28 04:00 330 5 5.4 5.0
2015-Feb-28 03:50 350 4 5.4 5.0
2015-Feb-28 03:40 350 3 5.4 5.0
2015-Feb-28 03:30 360 3 5.4 4.0
2015-Feb-28 03:20 070 2 5.4 4.0
2015-Feb-28 03:10 010 3 5.4 4.0
2015-Feb-28 03:00 010 5 5.4 4.0
2015-Feb-28 02:50 360 4 5.4 4.0
2015-Feb-28 02:40 320 5 5.4 4.0
2015-Feb-28 02:30 310 5 5.4 3.0
2015-Feb-28 02:20 320 7 5.4 3.0
2015-Feb-28 02:10 320 5 5.4 3.0
2015-Feb-28 02:00 310 5 5.4 3.0
2015-Feb-28 01:50 310 6 gusting 11 5.4 3.0
2015-Feb-28 01:40 320 7 gusting 11 5.4 3.0
2015-Feb-28 01:30 320 5 5.4 3.0
2015-Feb-28 01:20 320 6 gusting 10 4.3 2.0 Haze.
2015-Feb-28 01:10 230 1 2.6 1.0 Haze.
2015-Feb-28 01:00 200 1 2.2-0.0 Haze.
2015-Feb-28 00:50 210 2 2.2-0.0 Haze.
2015-Feb-28 00:40 210 2 2.6-0.0 Haze.
2015-Feb-28 00:30 260 1 2.2-1.0 Haze.
2015-Feb-28 00:20 260 1 1.7-1.0 Haze.
2015-Feb-28 00:10 270 1 1.7-2.0 Haze.
2015-Feb-28 00:00 230 2 1.5-2.0 Haze.
2015-Feb-27 23:50 220 2 1.5-2.0 Haze.
2015-Feb-27 23:40 210 2 1.5-2.0 Haze.
2015-Feb-27 23:30 210 2 1.5-3.0 Haze.
2015-Feb-27 23:20 240 2 1.7-3.0 Haze.
2015-Feb-27 23:10 1.7-3.0 Haze.
2015-Feb-27 23:00 1.7-3.0 Haze.
2015-Feb-27 22:50 250 1 2.2-3.0 Haze.
2015-Feb-27 22:40 210 2 2.2-3.0 Haze.
2015-Feb-27 22:30 180 1 2.2-4.0 Haze.
2015-Feb-27 22:20 210 2 1.7-3.0 Haze.
2015-Feb-27 22:10 2.2-4.0 Haze.
2015-Feb-27 22:00 070 1 2.2-4.0 Haze.
2015-Feb-27 21:50 1.7-4.0 Haze.
2015-Feb-27 21:40 200 2 1.7-4.0 Haze.
2015-Feb-27 21:30 240 1 2.2-3.0 Haze.
2015-Feb-27 21:20 200 2 2.6-4.0 Haze.
2015-Feb-27 21:10 190 2 3.2-4.0 Haze.
2015-Feb-27 21:00 210 1 3.2-4.0 Haze.
2015-Feb-27 20:50 190 2 3.2-4.0 Haze.
2015-Feb-27 20:40 230 2 4.3-4.0 Haze.
2015-Feb-27 20:30 290 1 4.9-4.0 Haze.
2015-Feb-27 20:20 140 1 4.3-4.0 Haze.
2015-Feb-27 20:10 060 1 4.3-4.0 Haze.
2015-Feb-27 20:00 4.3-4.0 Haze.
2015-Feb-27 19:50 060 1 4.3-5.0 Haze.
2015-Feb-27 19:40 070 1 4.3-5.0 Haze.
2015-Feb-27 19:30 4.3-4.0 Haze.
2015-Feb-27 19:20 060 1 3.2-5.0 Haze.
2015-Feb-27 19:10 350 1 3.2-4.0 Haze.
2015-Feb-27 19:00 3.2-5.0 Haze.
2015-Feb-27 18:50 360 1 3.2-4.0 Haze.
2015-Feb-27 18:40 4.3-4.0 Haze.
2015-Feb-27 18:30 210 1 5.4-4.0
2015-Feb-27 18:20 190 2 5.4-4.0
2015-Feb-27 18:10 300 1 5.4-4.0
2015-Feb-27 18:00 180 1 5.4-4.0
2015-Feb-27 17:50 030 1 5.4-4.0
2015-Feb-27 17:40 220 1 5.4-4.0
2015-Feb-27 17:30 270 1 5.4-4.0
2015-Feb-27 17:20 200 1 5.4-3.0
2015-Feb-27 17:10 250 1 5.4-3.0
2015-Feb-27 17:00 200 1 5.4-3.0
2015-Feb-27 16:50 200 1 5.4-3.0
2015-Feb-27 16:40 270 1 5.4-3.0
2015-Feb-27 16:30 5.4-3.0
2015-Feb-27 16:20 060 1 5.4-3.0
2015-Feb-27 16:10 060 1 5.4-4.0
2015-Feb-27 16:00 090 1 5.4-4.0
2015-Feb-27 15:50 360 1 5.4-3.0
2015-Feb-27 15:40 260 1 5.4-3.0
2015-Feb-27 15:30 280 1 5.4-3.0
2015-Feb-27 15:20 350 1 5.4-3.0
2015-Feb-27 15:10 5.4-3.0
2015-Feb-27 15:00 320 1 5.4-4.0
2015-Feb-27 14:50 230 2 5.4-2.0
2015-Feb-27 14:40 200 1 5.4-3.0
2015-Feb-27 14:30 090 2 5.4-2.0
2015-Feb-27 14:20 5.4-2.0
2015-Feb-27 14:10 5.4-3.0
2015-Feb-27 14:00 360 1 5.4-2.0
2015-Feb-27 13:50 080 2 5.4-2.0
2015-Feb-27 13:40 210 1 5.4-2.0
2015-Feb-27 13:30 070 1 5.4-2.0
2015-Feb-27 13:20 020 1 5.4-2.0
2015-Feb-27 13:10 110 1 5.4-2.0
2015-Feb-27 13:00 5.4-2.0
2015-Feb-27 12:50 020 2 5.4-1.0
2015-Feb-27 12:40 200 2 5.4-0.0
2015-Feb-27 12:30 190 3 5.4-0.0
2015-Feb-27 12:20 180 4 5.4-0.0
2015-Feb-27 12:10 190 3 5.4-0.0
2015-Feb-27 12:00 180 2 5.4-0.0
2015-Feb-27 11:50 180 3 5.4-0.0
2015-Feb-27 11:40 200 2 5.4-0.0
2015-Feb-27 11:30 190 4 5.4-0.0
2015-Feb-27 11:20 200 4 5.4-0.0
2015-Feb-27 11:10 190 4 5.4-0.0
2015-Feb-27 11:00 200 5 5.4-0.0
2015-Feb-27 10:50 190 5 5.4-0.0
2015-Feb-27 10:40 190 5 5.4-0.0
2015-Feb-27 10:30 200 4 5.4-0.0
2015-Feb-27 10:20 190 5 5.4-0.0
2015-Feb-27 10:10 190 5 5.4-0.0
2015-Feb-27 10:00 190 5 5.4 1.0
2015-Feb-27 09:50 190 5 5.4 1.0
2015-Feb-27 09:40 190 4 5.4 1.0
2015-Feb-27 09:30 190 5 5.4 1.0
2015-Feb-27 09:20 190 5 5.4 1.0
2015-Feb-27 09:10 180 4 5.4 1.0
2015-Feb-27 09:00 190 5 5.4 1.0
2015-Feb-27 08:50 180 6 5.4 1.0
2015-Feb-27 08:40 170 4 5.4 1.0
2015-Feb-27 08:30 190 5 5.4 1.0
2015-Feb-27 08:20 190 2 5.4 2.0
2015-Feb-27 08:10 190 2 5.4 2.0
2015-Feb-27 08:00 200 2 5.4 2.0
2015-Feb-27 07:50 180 3 5.4 2.0
2015-Feb-27 07:40 190 3 5.4 2.0
2015-Feb-27 07:30 150 3 5.4 2.0
2015-Feb-27 07:20 230 2 5.4 2.0
2015-Feb-27 07:10 150 2 5.4 2.0
2015-Feb-27 07:00 180 6 5.4 2.0
2015-Feb-27 06:50 180 3 5.4 1.0
2015-Feb-27 06:40 170 3 5.4 2.0
2015-Feb-27 06:30 190 4 5.4 2.0
2015-Feb-27 06:20 200 2 5.4 2.0
2015-Feb-27 06:10 330 3 5.4 2.0
2015-Feb-27 06:00 210 4 5.4 2.0
2015-Feb-27 05:50 050 3 5.4 2.0
2015-Feb-27 05:40 230 3 5.4 1.0
2015-Feb-27 05:30 080 3 gusting 10 5.4 1.0
2015-Feb-27 05:20 090 2 5.4 1.0
2015-Feb-27 05:10 190 4 5.4 1.0
2015-Feb-27 05:00 200 4 gusting 10 5.4 1.0
2015-Feb-27 04:50 180 4 5.4-0.0
2015-Feb-27 04:40 280 2 5.4-0.0
2015-Feb-27 04:30 190 5 gusting 14 5.4-1.0
2015-Feb-27 04:20 190 7 gusting 10 5.4-0.0
2015-Feb-27 04:10 120 2 5.4-0.0
2015-Feb-27 04:00 210 3 gusting 10 5.4-0.0
2015-Feb-27 03:50 190 6 gusting 11 5.4-1.0
2015-Feb-27 03:40 220 4 5.4-1.0
2015-Feb-27 03:30 170 6 gusting 14 5.4-2.0
2015-Feb-27 03:20 220 4 5.4-2.0
2015-Feb-27 03:10 220 6 5.4-2.0
2015-Feb-27 03:00 170 6 gusting 10 5.4-3.0
2015-Feb-27 02:50 180 7 gusting 11 5.4-3.0
2015-Feb-27 02:40 180 6 5.4-3.0
2015-Feb-27 02:30 260 2 5.4-1.0
2015-Feb-27 02:20 280 3 5.4-2.0
2015-Feb-27 02:10 190 4 5.4-3.0
2015-Feb-27 02:00 200 5 5.4-4.0
2015-Feb-27 01:50 210 3 5.4-4.0
2015-Feb-27 01:20 250 2 gusting 11 5.4-4.0
2015-Feb-27 01:10 180 6 5.4-4.0
2015-Feb-27 01:00 220 3 gusting 12 5.4-5.0
2015-Feb-27 00:50 180 3 gusting 10 5.4-4.0
2015-Feb-27 00:40 190 8 gusting 11 5.4-5.0
2015-Feb-27 00:30 180 7 5.4-5.0
2015-Feb-27 00:20 190 3 gusting 11 5.4-5.0
2015-Feb-27 00:10 090 3 5.4-5.0
2015-Feb-27 00:00 140 2 5.4-5.0
2015-Feb-26 23:50 180 4 gusting 10 5.4-5.0
2015-Feb-26 23:40 130 3 5.4-5.0
2015-Feb-26 23:30 100 4 5.4-5.0
2015-Feb-26 23:20 100 5 5.4-6.0
2015-Feb-26 23:10 100 3 5.4-6.0
2015-Feb-26 23:00 190 3 5.4-6.0
2015-Feb-26 22:50 090 3 5.4-6.0
2015-Feb-26 22:40 110 2 5.4-6.0
2015-Feb-26 22:30 110 5 5.4-6.0
2015-Feb-26 22:20 100 3 5.4-7.0
2015-Feb-26 22:10 090 2 5.4-7.0
2015-Feb-26 22:00 090 3 5.4-6.0
2015-Feb-26 21:50 110 2 5.4-6.0
2015-Feb-26 21:40 110 4 5.4-6.0
2015-Feb-26 21:30 120 3 5.4-6.0
2015-Feb-26 21:20 170 2 5.4-6.0
2015-Feb-26 21:10 100 1 5.4-6.0
2015-Feb-26 21:00 100 3 5.4-6.0
2015-Feb-26 20:50 110 2 5.4-6.0
2015-Feb-26 20:40 110 4 5.4-6.0
2015-Feb-26 20:30 110 2 5.4-5.0
2015-Feb-26 18:10 110 2 gusting 10 5.4-4.0
2015-Feb-26 18:00 100 2 5.4-4.0
2015-Feb-26 17:40 100 3 5.4-4.0
2015-Feb-26 17:30 110 3 5.4-4.0
2015-Feb-26 17:20 090 3 5.4-4.0
2015-Feb-26 17:10 100 2 5.4-4.0
2015-Feb-26 16:50 080 1 5.4-4.0
2015-Feb-26 16:40 040 1 5.4-4.0
2015-Feb-26 16:30 100 3 5.4-4.0
2015-Feb-26 16:20 100 3 5.4-4.0
2015-Feb-26 16:10 110 3 5.4-4.0
2015-Feb-26 16:00 110 3 5.4-4.0
2015-Feb-26 15:50 090 3 5.4-4.0
2015-Feb-26 15:40 080 2 5.4-4.0
2015-Feb-26 15:30 080 1 5.4-4.0
2015-Feb-26 15:20 080 2 5.4-4.0
2015-Feb-26 15:10 110 2 5.4-4.0
2015-Feb-26 15:00 100 3 5.4-4.0
2015-Feb-26 14:50 080 2 5.4-4.0
2015-Feb-26 14:40 080 2 5.4-4.0
2015-Feb-26 14:30 080 3 5.4-4.0
2015-Feb-26 14:20 080 3 5.4-4.0
2015-Feb-26 14:10 070 3 5.4-4.0
2015-Feb-26 14:00 100 3 5.4-4.0
2015-Feb-26 13:50 070 2 5.4-4.0
2015-Feb-26 13:40 110 3 5.4-4.0
2015-Feb-26 13:30 070 3 5.4-4.0
2015-Feb-26 13:20 070 2 5.4-4.0
2015-Feb-26 13:10 110 3 5.4-4.0
2015-Feb-26 13:00 100 3 5.4-3.0
2015-Feb-26 12:50 100 2 5.4-3.0
2015-Feb-26 12:40 110 4 5.4-3.0
2015-Feb-26 12:30 110 5 gusting 10 5.4-3.0
2015-Feb-26 12:20 100 3 5.4-3.0
2015-Feb-26 12:00 120 3 5.4-3.0